User: anonymous   Login
Location: Unspecified
(0.0000°N, 0.0000°E)
Time: 14:21:36
(UTC+00:00)
Language:

OV3-3 - Orbit

View from above orbital plane
View from above orbital plane
View from above satellite
View from above satellite

Ground track
Ground track

The orbit data is extracted from the following two-line orbital elements,

1  2389U 66070A   17080.93271452 +.00003867 +00000-0 +21370-3 0  9990
2  2389 081.3863 236.6694 1254139 120.6608 252.4182 12.89550684158575
Epoch (UTC): 21 March 2017 22:23:06
Eccentricity: 0.1254139
inclination: 81.3863°
perigee height: 340 km
apogee height: 2266 km
right ascension of ascending node: 236.6694°
argument of perigee: 120.6608°
revolutions per day: 12.89550684
mean anomaly at epoch: 252.4182°
orbit number at epoch: 15857

The dashed part of the orbit path shows where the satellite is in the earth's shadow,  

DLR